TimeEST,TemperatureF,Dew PointF,Humidity,Sea Level PressureIn,VisibilityMPH,Wind Direction,Wind SpeedMPH,Gust SpeedMPH,PrecipitationIn,Events,Conditions,WindDirDegrees,DateUTC
12:15 AM,51.8,48.2,88,30.03,10.0,South,12.7,20.7,N/A,,Partly Cloudy,190,2012-12-05 05:15:00
12:35 AM,51.8,50.0,94,30.02,10.0,South,11.5,18.4,N/A,,Partly Cloudy,190,2012-12-05 05:35:00
12:55 AM,51.8,50.0,94,30.01,10.0,South,13.8,20.7,N/A,,Partly Cloudy,190,2012-12-05 05:55:00
1:15 AM,51.8,50.0,94,30.00,10.0,South,13.8,18.4,N/A,,Clear,190,2012-12-05 06:15:00
1:35 AM,51.8,51.8,100,29.99,10.0,South,16.1,21.9,N/A,,Clear,190,2012-12-05 06:35:00
1:55 AM,51.8,51.8,100,29.98,10.0,South,16.1,23.0,N/A,,Clear,190,2012-12-05 06:55:00
2:15 AM,51.8,51.8,100,29.97,9.0,South,17.3,25.3,N/A,,Clear,190,2012-12-05 07:15:00
2:55 AM,51.8,51.8,100,29.95,7.0,SSW,12.7,21.9,N/A,,Clear,200,2012-12-05 07:55:00
3:15 AM,51.8,50.0,94,29.92,7.0,SSW,13.8,19.6,N/A,,Clear,200,2012-12-05 08:15:00
3:35 AM,53.6,51.8,94,29.91,7.0,SSW,16.1,-,N/A,,Clear,200,2012-12-05 08:35:00
3:56 AM,53.6,53.6,100,29.90,7.0,SSW,16.1,25.3,N/A,,Clear,200,2012-12-05 08:56:00
4:35 AM,53.6,53.6,100,29.88,8.0,SSW,20.7,27.6,N/A,,Partly Cloudy,200,2012-12-05 09:35:00
4:55 AM,53.6,53.6,100,29.87,7.0,SSW,18.4,23.0,N/A,,Partly Cloudy,200,2012-12-05 09:55:00
5:15 AM,53.6,51.8,94,29.86,7.0,South,16.1,25.3,N/A,,Clear,190,2012-12-05 10:15:00
6:15 AM,53.6,51.8,94,29.88,10.0,SW,15.0,-,N/A,,Overcast,220,2012-12-05 11:15:00
6:35 AM,53.6,53.6,100,29.89,7.0,SW,19.6,23.0,N/A,,Overcast,220,2012-12-05 11:35:00
6:55 AM,53.6,51.8,94,29.88,5.0,SW,12.7,-,N/A,,Overcast,220,2012-12-05 11:55:00
7:15 AM,51.8,51.8,100,29.88,4.0,SW,13.8,-,N/A,,Overcast,220,2012-12-05 12:15:00
7:55 AM,51.8,50.0,94,29.89,5.0,WSW,11.5,-,0.03,,Overcast,240,2012-12-05 12:55:00
9:35 AM,51.8,51.8,100,29.91,10.0,West,9.2,-,N/A,,Overcast,280,2012-12-05 14:35:00
9:55 AM,51.8,50.0,94,29.92,10.0,West,10.4,-,N/A,,Overcast,280,2012-12-05 14:55:00
10:15 AM,51.8,48.2,88,29.92,10.0,WNW,10.4,-,N/A,,Overcast,290,2012-12-05 15:15:00
10:55 AM,53.6,46.4,77,29.90,10.0,WNW,13.8,19.6,N/A,,Partly Cloudy,300,2012-12-05 15:55:00
11:15 AM,53.6,46.4,77,29.90,10.0,WNW,13.8,-,N/A,,Clear,300,2012-12-05 16:15:00
11:55 AM,51.8,42.8,71,29.89,10.0,WNW,13.8,-,N/A,,Clear,300,2012-12-05 16:55:00
12:35 PM,51.8,42.8,71,29.89,10.0,NW,13.8,21.9,N/A,,Clear,320,2012-12-05 17:35:00
12:55 PM,53.6,42.8,67,29.89,10.0,NW,11.5,-,N/A,,Clear,310,2012-12-05 17:55:00
1:35 PM,51.8,39.2,62,29.89,10.0,NW,11.5,-,N/A,,Clear,310,2012-12-05 18:35:00
1:55 PM,51.8,39.2,62,29.89,10.0,WNW,12.7,-,N/A,,Clear,300,2012-12-05 18:55:00
2:15 PM,51.8,39.2,62,29.89,10.0,WNW,12.7,-,N/A,,Clear,300,2012-12-05 19:15:00
2:55 PM,51.8,39.2,62,29.90,10.0,WNW,13.8,-,N/A,,Clear,300,2012-12-05 19:55:00
3:15 PM,51.8,39.2,62,29.90,10.0,WNW,13.8,-,N/A,,Clear,290,2012-12-05 20:15:00
3:55 PM,50.0,39.2,66,29.92,10.0,WNW,11.5,-,N/A,,Clear,290,2012-12-05 20:55:00
4:15 PM,48.2,37.4,66,29.92,10.0,WNW,16.1,-,N/A,,Clear,290,2012-12-05 21:15:00
4:35 PM,48.2,37.4,66,29.93,10.0,WNW,12.7,-,N/A,,Clear,290,2012-12-05 21:35:00
4:55 PM,48.2,37.4,66,29.94,10.0,WNW,18.4,-,N/A,,Clear,300,2012-12-05 21:55:00
5:35 PM,48.2,35.6,62,29.95,10.0,NW,26.5,29.9,N/A,,Mostly Cloudy,310,2012-12-05 22:35:00
5:55 PM,46.4,33.8,62,29.96,10.0,WNW,23.0,33.4,N/A,,Overcast,300,2012-12-05 22:55:00
6:15 PM,46.4,32.0,57,29.98,10.0,WNW,21.9,35.7,N/A,,Overcast,300,2012-12-05 23:15:00
6:55 PM,44.6,32.0,61,30.01,10.0,NW,23.0,29.9,N/A,,Mostly Cloudy,320,2012-12-05 23:55:00
7:15 PM,44.6,28.4,53,30.02,10.0,NW,23.0,33.4,N/A,,Overcast,320,2012-12-06 00:15:00
7:55 PM,42.8,26.6,53,30.03,10.0,NW,24.2,31.1,N/A,,Overcast,310,2012-12-06 00:55:00
8:15 PM,42.8,26.6,53,30.03,10.0,NW,21.9,29.9,N/A,,Overcast,320,2012-12-06 01:15:00
8:35 PM,41.0,28.4,61,30.03,10.0,NW,21.9,32.2,N/A,,Overcast,320,2012-12-06 01:35:00
8:55 PM,41.0,28.4,61,30.04,10.0,NNW,25.3,32.2,N/A,,Overcast,330,2012-12-06 01:55:00
9:15 PM,39.2,28.4,65,30.04,10.0,NW,31.1,38.0,N/A,,Overcast,310,2012-12-06 02:15:00
9:35 PM,39.2,26.6,61,30.05,10.0,NW,24.2,34.5,N/A,,Overcast,320,2012-12-06 02:35:00
9:55 PM,39.2,26.6,61,30.07,10.0,NW,27.6,34.5,N/A,,Overcast,320,2012-12-06 02:55:00
11:35 PM,37.4,24.8,60,30.11,10.0,NW,29.9,35.7,N/A,,Mostly Cloudy,310,2012-12-06 04:35:00
11:55 PM,35.6,23.0,60,30.12,10.0,NW,21.9,32.2,N/A,,Overcast,320,2012-12-06 04:55:00